Location: ??????
(56.0120°N, 39.1740°E)
Time: 20:11:21
(UTC+00:00)

NOSS 2-1 (C) - Pass Details

Date: 14 April 2026
Orbit: 374 x 1679 km, 63.3° (Epoch: 15 May)

Event Time Altitude Azimuth Distance (km) Brightness Sun altitude
Rises 17:13:08 0° 306° (NW) 2,248 8.8 -6.6°
Reaches altitude 10° 17:15:07 10° 315° (NW) 1,416 6.9 -6.9°
Maximum altitude 17:18:01 41° 28° (NNE) 616 3.6 -7.2°
Drops below altitude 10° 17:21:23 10° 101° (E) 1,653 5.2 -7.6°
Enters shadow 17:21:35 - 102° (ESE) 1,737 5.3 -7.7°
